Zurück zum Katalog

STARLINK-11158

AktivKommunikationVLEO
NORAD 60403·PAYLOAD·🇺🇸 United States

Gestartet Aug 10, 2024 von Cape Canaveral Space Force Station

Loading…

Nächste Überflüge (nächste 24 Stunden)

TLE

AktuellSource: CelesTrak SupGP

Epoche: Sep 15, 2026, 03:14 UTC

1 60403C 24141F   26258.13520833 -.00078046  00000+0 -64243-3 0  2589
2 60403  53.1574 232.7153 0001193  84.9879 239.7928 15.69765631    12

Verfolge STARLINK-11158 in Echtzeit mit AllMySat

Download on the App Store